Weather Roundup
Issued by NWS Chicago, IL

Home | Current Version | Previous Version | Graphics & Text | Print | Product List | Glossary On
Versions: 1 2 3 4 5 6 7 8 9 10 11 12 13 14 15 16 17 18 19 20 21 22 23 24 25 26 27 28 29 30 31 32 33 34 35 36 37 38 39 40 41 42 43 44 45 46 47 48 49 50
000
NZUS59 KLOT 200710
HRRLOT

CHICAGO AREA WEATHER ROUNDUP
NATIONAL WEATHER SERVICE CHICAGO/ROMEOVILLE IL
200 AM CDT SAT SEP 20 2014

NOTE: "FAIR" INDICATES FEW OR NO CLOUDS BELOW 12,000 FEET WITH NO
SIGNIFICANT WEATHER AND/OR OBSTRUCTIONS TO VISIBILITY.

* THESE STATIONS ARE NOT UNDER NWS QUALITY CONTROL. THEY ALSO MAY NOT
  REPORT WEATHER SUCH AS PRECIPITATION OR FOG.

ILZ005-006-012>014-019>023-200800-
NORTHEAST ILLINOIS

CITY           SKY/WX    TMP DP  RH WIND       PRES   REMARKS
OHARE          PTCLDY    64  50  60 SW9G20    29.94R
MIDWAY         PTCLDY    64  52  64 SW12      29.96R
AURORA         CLEAR     57  50  77 S5        29.96R
LANSING*       CLEAR     59  52  76 SW7       29.97R
JOLIET*        CLEAR     62  50  66 SW6       29.97R
WAUKEGAN       CLEAR     63  50  62 SW14G22   29.91R
DUPAGE AIRPORT CLEAR     61  51  70 S12       29.94R
WHEELING       CLEAR     65  50  58 S13       29.94R
KANKAKEE*      CLEAR     57  52  85 S5        29.97R
MORRIS*        CLEAR     55  52  91 S5        29.96R
LEWIS AIRPORT* CLEAR     56  51  84 S6        29.96R
NORTHERLY IS     N/A     65  49  56 SW10        N/A
$$

WIZ051-052-058>065-066-070>072-200800-
SOUTHEAST WISCONSIN

CITY           SKY/WX    TMP DP  RH WIND       PRES   REMARKS
MILWAUKEE      PTCLDY    65  50  58 SW17      29.85F
KENOSHA*       CLEAR     65  52  62 SW13G23   29.90R
RACINE*        CLEAR     65  50  58 SW13      29.89S
BURLINGTON     CLEAR     60  51  72 SW12G17   29.87F
WAUKESHA       CLEAR     61  50  67 SW10G20   29.86F
WEST BEND      CLEAR     64  50  59 SW20G28   29.81F
$$

INZ001>003-010>013-019-020-200800-
NORTHWEST INDIANA

CITY           SKY/WX    TMP DP  RH WIND       PRES   REMARKS
GARY*          CLEAR     64  51  64 CALM      29.97R
MICHIGAN CITY* NOT AVBL
RENSSELAER*    NOT AVBL
VALPARAISO     CLEAR     59  50  72 SW7       29.97S
$$

LMZ740>746-200800-
SOUTHERN LAKE MICHIGAN

STATION/POSITION TIME  SKY/WX   TEMP WIND        PRES    VSBY
                                AIR  DIR/SP/G
                 (UTC)          (F)  (DEG/KT/KT) (MB)    (MI)
HARRISON CRIB    0700            65  200/ 17/ 22   N/A
BURNHAM HARBOR   0700            65  190/ 11/ 14   N/A
CALUMET HARBOR   0700            64  210/  8/ 14 1013.3R
BURNS HARBOR     NOT AVBL
MICHIGAN CITY    0700            62  170/ 12/ 17   N/A
$$

ABBREVIATIONS USED IN REMARKS
   TC - TEMPERATURE IN CELSIUS
  WCI - WIND CHILL INDEX
   HX - HEAT INDEX
  VSB - VISIBILITY
$$


USA.gov is the U.S. government's official web portal to all federal, state and local government web resources and services.